SCP
0 0 0 0 0 0 0 0 0 0 0 0 0 0 0 0 0 1 1 1 2 2 2 1 1 2 2 2 1 1 0 1 1 1 1 0 0 0 0 0 0 0 0 0
0 0 0 0 0 0 0 -0 0 0 -0 1 0 0 0 1 1 0 1 1 0 1 1 2 2 1 0 1 1 1 1 1 1 2 1 1 0 0 0 0 0 0 0 0
0 0 0 0 0 0 0 0 0 0 0 0 0 0 0 1 1 1 1 1 1 0 0 1 0 0 0 1 1 2 1 1 1 2 1 1 1 0 0 0 0 0 0 0
0 0 0 0 0 0 0 0 1 0 1 0 0 0 0 0 0 0 1 1 1 1 1 0 0 0 0 0 0 0 1 1 1 3 2 1 1 0 1 1 1 1 0 0
0 0 0 0 0 0 0 0 0 0 0 0 0 0 0 0 0 0 0 0 0 0 0 0 0 0 0 0 0 0 0 1 2 2 2 1 1 1 1 1 1 1 1 0
0 0 0 0 0 0 0 0 -0 0 0 0 0 0 0 0 0 0 0 0 0 0 0 0 0 0 0 0 0 0 0 0 0 0 0 0 0 0 0 1 0 0 0 0
0 0 0 0 0 0 0 0 0 0 0 0 0 0 0 0 0 0 -0 0 0 0 0 0 0 0 0 0 0 0 0 0 0 0 0 0 0 0 0 0 0 0 0 0
0 0 0 0 0 0 0 0 0 0 0 0 0 0 0 0 0 0 0 0 0 0 0 0 0 0 0 0 0 0 0 0 0 0 0 0 0 0 0 0 0 0 0 0
0 0 0 0 0 0 0 0 0 0 0 0 0 0 0 0 0 0 0 0 0 0 0 0 0 0 0 -0 0 0 0 0 0 0 0 0 0 0 0 0 0 0 0 0
0 0 0 0 0 0 0 0 0 0 0 0 0 0 0 0 0 0 0 0 0 0 0 0 0 0 0 0 0 0 0 0 0 0 0 0 0 0 0 0 0 0 0 0
0 -0 -0 0 0 0 0 0 0 0 0 0 0 0 0 0 0 0 0 0 0 0 0 0 0 0 0 0 -0 -0 -0 -0 0 0 0 0 0 0 0 0 0 0 0 0
0 -0 -0 0 0 0 0 0 0 0 0 0 0 0 0 0 0 0 0 0 -0 -0 0 0 0 0 0 0 0 0 0 0 0 0 0 0 0 0 0 -0 0 -0 0 0
0 -0 -0 0 0 0 0 -0 -0 -0 -0 -0 -0 -0 -0 -0 -0 0 0 0 0 0 0 0 0 0 0 0 0 0 0 0 0 0 0 0 0 0 0 0 -0 -0 0 0
-0 -0 0 0 0 0 -0 -0 0 0 0 -0 -0 -0 -0 -0 -0 -0 0 0 0 0 0 0 0 0 0 0 0 0 0 0 0 0 0 0 0 0 0 0 0 0 0 0
-0 -0 -0 -0 -0 -0 -0 -0 -0 0 -0 -0 -0 0 -0 -0 -0 -0 -0 -0 -0 -0 0 0 0 0 0 0 0 0 0 0 0 0 0 0 0 0 0 0 0 0 -0 0
0 -0 -0 -0 -0 -0 -0 -0 -0 -0 -0 -0 0 -0 -0 -0 0 0 0 0 0 0 0 0 0 0 0 0 0 0 0 0 0 0 0 0 0 0 0 0 0 0 -0 -0
0 -0 0 0 0 0 0 -0 -0 0 -0 -0 -0 -0 -0 0 0 0 0 0 0 0 0 0 0 0 0 0 0 0 0 0 0 0 0 0 0 0 0 0 0 0 0 0
-0 0 -0 -0 -0 0 0 0 0 0 0 0 0 0 0 0 0 0 0 0 0 0 0 0 0 0 0 0 0 0 0 0 0 0 0 0 0 0 0 0 0 0 0 0
0 0 0 0 0 0 0 0 0 0 0 0 0 0 0 0 0 0 0 0 0 0 0 0 0 0 0 0 0 0 0 0 0 0 0 0 0 0 0 0 0 0 0 0
0 0 0 0 0 0 0 0 0 0 0 0 0 0 0 0 0 0 0 0 0 0 0 0 0 0 0 0 0 0 0 0 0 0 0 0 0 0 0 0 0 0 0 0
0 0 0 0 0 0 0 0 0 0 0 0 0 0 0 0 0 0 0 0 0 0 0 0 0 0 0 0 0 0 0 0 0 0 0 0 0 0 0 0 0 0 0 0
0 0 0 0 0 0 0 0 0 0 0 0 0 0 0 0 0 0 0 0 0 0 0 0 0 0 0 0 0 0 0 0 0 0 0 0 0 0 0 0 0 0 0 0
0 0 0 0 0 0 0 0 0 0 0 0 0 0 0 0 0 0 0 0 0 0 0 0 0 0 0 0 0 0 0 0 0 0 0 0 0 0 0 0 0 0 0 0
0 0 0 0 0 0 0 0 0 0 0 0 0 0 0 0 0 0 0 0 0 0 0 0 0 0 -0 0 0 0 0 0 0 0 0 0 0 0 0 0 0 0 0 0
0 0 0 0 0 0 0 0 0 0 0 0 0 0 0 0 0 0 0 0 0 0 0 0 0 0 0 0 0 0 0 0 0 0 0 0 0 0 0 0 0 0 0 0
-0 0 0 -0 -0 0 0 0 0 0 0 0 0 0 0 0 0 0 0 0 0 0 0 0 0 0 0 0 0 0 0 0 0 -0 -0 -0 0 0 0 0 0 0 0 0
-0 0 0 0 0 0 0 0 0 0 0 0 0 0 0 0 0 0 0 0 0 0 0 0 0 0 0 0 0 0 0 0 0 0 0 0 0 -0 -0 0 0 0 0 0
Wind_Speed_500mb
19 26 18 14 13 2 6 19 24 31 20 4 8 12 16 16 21 26 21 20 17 20 19 35 25 30 34 36 21 28 55 58 50 42 40 34 29 29 28 23 18 20 24 26
28 15 17 23 2 11 11 11 13 24 11 5 13 7 13 23 26 28 25 21 23 22 20 30 34 27 34 31 24 20 32 32 48 43 40 33 30 27 26 25 22 21 23 26
23 10 23 15 4 3 7 7 12 14 10 9 11 12 23 26 24 29 28 24 27 24 11 18 17 8 19 18 17 17 34 42 42 42 38 31 28 26 26 29 27 25 24 26
16 16 15 2 1 6 9 11 11 12 5 5 9 6 5 8 12 17 22 22 25 12 6 7 15 15 13 25 34 22 30 51 48 37 34 30 28 31 29 31 31 31 31 30
11 14 6 8 1 4 6 11 8 12 9 13 5 11 11 12 4 7 20 19 24 13 3 4 21 36 39 24 49 48 74 71 46 30 27 33 32 33 33 33 36 40 41 40
4 8 9 8 9 18 18 13 20 21 12 10 9 3 7 13 9 16 21 26 23 26 23 14 13 16 3 7 41 51 74 54 31 15 20 27 29 29 35 33 38 41 43 46
17 9 3 12 16 7 10 3 9 15 18 14 2 7 4 10 20 25 22 19 18 28 24 32 30 21 24 33 27 27 19 11 3 13 16 21 22 27 33 34 37 42 47 47
4 9 9 17 3 5 9 10 13 15 14 12 2 16 17 14 20 28 26 20 20 24 31 25 20 21 27 19 20 19 19 7 6 11 16 20 24 30 35 39 45 48 55 53
6 6 2 14 8 8 10 17 15 15 12 13 22 21 19 16 16 22 24 26 27 28 27 29 29 25 19 13 6 10 8 10 5 3 6 11 17 23 33 42 46 43 45 48
8 2 8 7 9 4 9 14 14 7 10 12 20 20 16 15 14 19 20 21 24 29 31 35 34 33 31 25 21 18 17 20 19 15 15 17 20 22 22 23 28 36 41 50
9 5 10 7 5 0 10 9 21 23 20 23 21 18 17 15 18 19 24 28 26 29 33 32 31 29 26 21 18 17 19 22 26 27 26 30 31 23 16 14 23 31 35 40
5 0 1 6 7 11 21 19 19 27 30 28 21 29 9 13 16 20 22 24 28 26 31 29 25 20 17 15 12 12 14 19 26 29 30 29 31 28 24 20 19 23 28 32
4 2 10 2 5 4 10 13 19 23 25 32 33 30 14 14 16 18 20 22 21 21 21 18 15 14 15 14 12 10 10 11 16 21 26 29 29 31 37 35 30 22 24 30
7 15 7 9 7 4 8 8 6 9 8 14 19 19 18 18 19 18 18 16 13 12 10 12 15 16 15 15 17 19 18 18 20 19 19 19 24 28 28 33 34 30 31 30
16 10 13 10 8 5 5 16 19 16 18 16 16 17 15 14 14 14 11 11 14 15 16 16 17 19 20 20 22 25 26 23 24 24 22 20 21 21 24 22 27 26 29 34
24 20 16 11 9 5 5 11 15 15 14 8 7 7 5 4 7 7 10 13 15 16 22 24 20 18 19 24 28 29 28 26 24 27 26 23 21 19 16 17 15 19 25 29
26 18 21 19 16 15 15 9 16 13 11 10 5 5 7 8 11 13 13 13 18 22 26 26 28 31 32 32 32 29 27 27 26 23 21 21 17 17 16 16 11 13 16 19
22 12 10 13 12 13 12 19 10 11 13 11 10 11 11 11 11 10 14 20 26 22 21 27 32 32 29 27 27 25 23 20 20 23 26 22 15 13 15 11 7 5 14 16
22 15 9 6 10 4 4 8 10 6 10 13 12 11 11 9 8 12 18 22 16 16 21 27 26 25 26 28 28 23 22 25 26 24 19 17 14 11 11 4 5 4 13 14
16 15 8 6 3 4 4 3 11 10 11 13 8 6 6 6 10 15 16 10 11 13 14 24 25 23 23 20 17 16 18 25 19 13 10 9 11 13 10 11 10 3 3 20
12 4 5 8 7 4 1 2 6 8 8 10 8 7 7 9 11 13 12 11 17 15 12 17 18 20 22 22 15 9 15 20 17 10 9 10 12 9 7 8 15 10 11 21
20 19 13 8 5 5 8 11 11 12 14 16 12 9 10 12 13 9 10 9 7 4 4 6 15 21 23 20 18 16 17 18 18 19 16 12 12 7 3 11 17 17 17 19
22 12 11 11 10 11 14 17 16 13 9 7 8 11 14 16 16 10 6 9 6 8 10 14 19 23 25 26 24 23 21 22 20 16 18 17 15 9 13 13 16 14 19 20
24 8 3 7 9 8 11 13 13 13 14 14 14 15 18 15 12 13 12 7 2 3 3 5 9 12 16 21 22 23 26 27 23 19 16 15 16 16 10 11 10 12 13 13
26 19 15 12 15 14 14 15 14 15 18 19 20 19 17 15 10 9 14 16 14 14 10 9 7 11 14 15 14 15 17 17 19 19 18 15 13 11 11 13 15 11 11 12
22 23 22 22 24 22 23 27 28 23 19 21 25 27 25 20 17 18 18 14 12 11 12 11 14 17 18 18 18 17 15 14 13 9 9 10 9 7 3 3 3 3 6 8
19 20 23 25 27 25 22 22 27 31 29 26 26 25 30 30 29 25 22 25 25 24 23 24 24 24 27 28 28 26 23 23 19 18 16 11 8 7 5 4 6 8 9 13
Wind_Direction_500mb
284 262 268 275 266 179 302 291 270 270 228 58 38 41 354 16 30 42 56 81 91 106 122 149 155 172 182 181 238 216 208 201 205 195 201 212 223 226 226 228 233 232 227 224
283 260 271 280 278 271 324 360 329 312 245 62 80 41 61 56 49 49 61 74 78 115 123 132 155 172 172 186 229 244 225 244 201 188 198 211 219 221 232 230 233 238 240 233
278 287 306 256 274 214 262 353 356 290 8 149 117 119 73 66 61 64 59 72 96 89 81 87 131 104 95 104 193 242 262 247 233 192 205 218 227 228 239 238 238 240 244 247
268 289 264 73 126 270 308 19 6 298 244 203 154 138 104 45 37 44 42 34 51 66 179 191 165 191 235 243 229 226 265 253 241 212 212 236 250 249 247 247 246 250 251 251
250 252 308 211 229 6 27 82 43 310 182 194 250 332 59 10 48 72 45 42 42 47 44 230 230 241 266 263 289 292 251 238 224 208 217 244 245 249 250 252 253 254 256 255
282 240 259 63 34 64 74 292 10 330 282 270 321 65 67 26 54 91 93 76 68 68 79 71 15 331 262 25 358 221 209 208 204 179 229 238 242 250 254 252 256 259 261 265
237 266 115 14 345 104 170 70 281 261 256 272 337 64 71 91 80 85 79 96 94 76 83 89 72 82 82 39 17 23 83 162 12 234 233 247 248 254 260 261 256 260 263 264
272 236 229 358 146 253 22 314 300 293 284 295 179 110 100 94 89 92 101 120 96 88 87 93 78 82 70 31 342 18 28 38 229 244 257 262 260 263 259 256 257 259 266 267
265 341 332 296 303 314 314 301 319 321 353 94 107 93 95 103 98 105 105 104 97 91 97 94 94 101 120 129 107 62 79 107 96 20 319 296 287 282 276 272 266 269 269 271
303 113 310 336 357 143 75 14 354 23 69 80 102 94 95 91 88 103 105 104 99 103 99 93 88 89 91 93 92 86 82 76 70 66 50 25 5 348 335 314 297 285 284 282
262 276 306 10 18 118 334 48 79 96 87 93 95 67 69 75 80 87 100 113 120 110 103 94 92 91 96 95 94 84 74 66 55 48 38 32 20 357 331 321 312 315 305 291
303 156 212 113 60 46 58 103 109 110 108 101 90 69 12 77 82 97 102 105 97 103 102 101 89 81 74 68 58 53 43 34 28 26 26 22 19 19 25 7 333 320 319 317
328 247 194 334 152 63 78 93 116 107 116 108 103 100 141 106 91 95 99 99 107 107 96 84 63 27 19 24 17 9 6 2 1 4 6 11 7 8 11 14 16 6 344 325
155 117 100 88 79 45 90 102 132 186 154 118 106 126 125 110 95 85 76 80 86 77 45 22 12 360 347 341 340 341 340 332 329 329 332 343 351 356 1 3 10 13 17 10
162 145 144 134 113 75 119 136 141 142 133 117 117 110 125 111 102 85 66 39 27 17 7 353 343 331 323 317 318 322 319 317 316 314 311 314 323 339 345 351 359 1 16 22
170 164 180 207 221 200 139 179 178 175 165 130 118 110 90 41 23 9 11 356 351 343 335 327 324 319 321 317 317 320 319 313 310 304 307 307 308 315 321 330 339 355 4 10
171 196 215 236 247 245 230 234 219 210 196 198 241 289 303 310 323 333 320 327 334 331 326 324 327 326 327 325 329 325 322 324 327 316 313 297 297 301 305 315 322 338 357 351
206 210 236 263 269 286 265 243 214 193 224 223 246 264 273 273 305 309 312 322 320 322 328 336 335 335 330 332 334 335 339 337 329 318 307 301 291 305 292 296 339 6 3 353
219 223 253 287 312 279 222 187 159 187 230 233 240 257 252 279 307 313 326 327 334 344 344 352 355 1 1 357 356 359 359 343 333 321 314 314 307 297 287 228 215 34 20 65
269 210 204 262 225 98 85 132 181 205 223 222 251 276 264 293 310 320 331 324 329 334 344 357 10 11 7 360 7 5 346 346 340 332 326 309 311 310 285 233 197 160 67 119
21 5 164 119 93 84 79 219 233 236 246 279 297 278 275 290 295 318 331 337 321 331 353 2 13 16 22 28 25 22 3 12 14 18 344 330 325 310 293 242 195 173 150 147
40 59 66 75 53 353 319 309 304 306 302 294 283 270 301 308 300 307 325 325 309 2 30 23 39 42 40 47 55 52 43 47 46 43 32 31 33 45 115 180 158 148 161 165
345 19 19 357 354 336 321 313 308 302 294 279 272 290 301 294 280 270 285 343 123 115 88 78 66 53 54 55 55 56 51 50 51 47 51 61 66 87 115 125 131 156 168 154
311 299 308 318 310 332 340 317 304 298 294 275 267 282 300 296 278 268 252 276 204 151 132 72 45 37 25 38 41 45 49 52 50 45 43 50 67 67 83 105 128 144 160 168
282 264 270 281 284 289 303 317 317 306 295 282 268 273 285 296 287 256 274 259 252 230 223 232 279 313 325 329 338 351 8 28 45 51 51 54 62 69 91 103 104 109 124 133
252 257 260 267 274 286 298 290 285 284 293 292 276 266 265 270 266 259 263 246 233 219 222 252 281 295 304 311 314 318 321 328 348 11 36 44 49 47 59 117 151 141 182 191
244 256 269 274 281 293 296 304 288 274 278 283 283 270 266 261 257 249 247 239 242 246 256 272 278 278 285 285 294 302 301 299 295 295 303 289 283 291 296 277 246 244 247 244
Wind_Speed_850mb
19 26 18 14 13 2 6 19 24 31 20 4 8 12 16 16 21 26 21 20 17 20 19 35 25 30 34 36 21 28 55 58 50 42 40 34 29 29 28 23 18 20 24 26
28 15 17 23 2 11 11 11 13 24 11 5 13 7 13 23 26 28 25 21 23 22 20 30 34 27 34 31 24 20 32 32 48 43 40 33 30 27 26 25 22 21 23 26
23 10 23 15 4 3 7 7 12 14 10 9 11 12 23 26 24 29 28 24 27 24 11 18 17 8 19 18 17 17 34 42 42 42 38 31 28 26 26 29 27 25 24 26
16 16 15 2 1 6 9 11 11 12 5 5 9 6 5 8 12 17 22 22 25 12 6 7 15 15 13 25 34 22 30 51 48 37 34 30 28 31 29 31 31 31 31 30
11 14 6 8 1 4 6 11 8 12 9 13 5 11 11 12 4 7 20 19 24 13 3 4 21 36 39 24 49 48 74 71 46 30 27 33 32 33 33 33 36 40 41 40
4 8 9 8 9 18 18 13 20 21 12 10 9 3 7 13 9 16 21 26 23 26 23 14 13 16 3 7 41 51 74 54 31 15 20 27 29 29 35 33 38 41 43 46
17 9 3 12 16 7 10 3 9 15 18 14 2 7 4 10 20 25 22 19 18 28 24 32 30 21 24 33 27 27 19 11 3 13 16 21 22 27 33 34 37 42 47 47
4 9 9 17 3 5 9 10 13 15 14 12 2 16 17 14 20 28 26 20 20 24 31 25 20 21 27 19 20 19 19 7 6 11 16 20 24 30 35 39 45 48 55 53
6 6 2 14 8 8 10 17 15 15 12 13 22 21 19 16 16 22 24 26 27 28 27 29 29 25 19 13 6 10 8 10 5 3 6 11 17 23 33 42 46 43 45 48
8 2 8 7 9 4 9 14 14 7 10 12 20 20 16 15 14 19 20 21 24 29 31 35 34 33 31 25 21 18 17 20 19 15 15 17 20 22 22 23 28 36 41 50
9 5 10 7 5 0 10 9 21 23 20 23 21 18 17 15 18 19 24 28 26 29 33 32 31 29 26 21 18 17 19 22 26 27 26 30 31 23 16 14 23 31 35 40
5 0 1 6 7 11 21 19 19 27 30 28 21 29 9 13 16 20 22 24 28 26 31 29 25 20 17 15 12 12 14 19 26 29 30 29 31 28 24 20 19 23 28 32
4 2 10 2 5 4 10 13 19 23 25 32 33 30 14 14 16 18 20 22 21 21 21 18 15 14 15 14 12 10 10 11 16 21 26 29 29 31 37 35 30 22 24 30
7 15 7 9 7 4 8 8 6 9 8 14 19 19 18 18 19 18 18 16 13 12 10 12 15 16 15 15 17 19 18 18 20 19 19 19 24 28 28 33 34 30 31 30
16 10 13 10 8 5 5 16 19 16 18 16 16 17 15 14 14 14 11 11 14 15 16 16 17 19 20 20 22 25 26 23 24 24 22 20 21 21 24 22 27 26 29 34
24 20 16 11 9 5 5 11 15 15 14 8 7 7 5 4 7 7 10 13 15 16 22 24 20 18 19 24 28 29 28 26 24 27 26 23 21 19 16 17 15 19 25 29
26 18 21 19 16 15 15 9 16 13 11 10 5 5 7 8 11 13 13 13 18 22 26 26 28 31 32 32 32 29 27 27 26 23 21 21 17 17 16 16 11 13 16 19
22 12 10 13 12 13 12 19 10 11 13 11 10 11 11 11 11 10 14 20 26 22 21 27 32 32 29 27 27 25 23 20 20 23 26 22 15 13 15 11 7 5 14 16
22 15 9 6 10 4 4 8 10 6 10 13 12 11 11 9 8 12 18 22 16 16 21 27 26 25 26 28 28 23 22 25 26 24 19 17 14 11 11 4 5 4 13 14
16 15 8 6 3 4 4 3 11 10 11 13 8 6 6 6 10 15 16 10 11 13 14 24 25 23 23 20 17 16 18 25 19 13 10 9 11 13 10 11 10 3 3 20
12 4 5 8 7 4 1 2 6 8 8 10 8 7 7 9 11 13 12 11 17 15 12 17 18 20 22 22 15 9 15 20 17 10 9 10 12 9 7 8 15 10 11 21
20 19 13 8 5 5 8 11 11 12 14 16 12 9 10 12 13 9 10 9 7 4 4 6 15 21 23 20 18 16 17 18 18 19 16 12 12 7 3 11 17 17 17 19
22 12 11 11 10 11 14 17 16 13 9 7 8 11 14 16 16 10 6 9 6 8 10 14 19 23 25 26 24 23 21 22 20 16 18 17 15 9 13 13 16 14 19 20
24 8 3 7 9 8 11 13 13 13 14 14 14 15 18 15 12 13 12 7 2 3 3 5 9 12 16 21 22 23 26 27 23 19 16 15 16 16 10 11 10 12 13 13
26 19 15 12 15 14 14 15 14 15 18 19 20 19 17 15 10 9 14 16 14 14 10 9 7 11 14 15 14 15 17 17 19 19 18 15 13 11 11 13 15 11 11 12
22 23 22 22 24 22 23 27 28 23 19 21 25 27 25 20 17 18 18 14 12 11 12 11 14 17 18 18 18 17 15 14 13 9 9 10 9 7 3 3 3 3 6 8
19 20 23 25 27 25 22 22 27 31 29 26 26 25 30 30 29 25 22 25 25 24 23 24 24 24 27 28 28 26 23 23 19 18 16 11 8 7 5 4 6 8 9 13
Wind_Direction_850mb
284 262 268 275 266 179 302 291 270 270 228 58 38 41 354 16 30 42 56 81 91 106 122 149 155 172 182 181 238 216 208 201 205 195 201 212 223 226 226 228 233 232 227 224
283 260 271 280 278 271 324 360 329 312 245 62 80 41 61 56 49 49 61 74 78 115 123 132 155 172 172 186 229 244 225 244 201 188 198 211 219 221 232 230 233 238 240 233
278 287 306 256 274 214 262 353 356 290 8 149 117 119 73 66 61 64 59 72 96 89 81 87 131 104 95 104 193 242 262 247 233 192 205 218 227 228 239 238 238 240 244 247
268 289 264 73 126 270 308 19 6 298 244 203 154 138 104 45 37 44 42 34 51 66 179 191 165 191 235 243 229 226 265 253 241 212 212 236 250 249 247 247 246 250 251 251
250 252 308 211 229 6 27 82 43 310 182 194 250 332 59 10 48 72 45 42 42 47 44 230 230 241 266 263 289 292 251 238 224 208 217 244 245 249 250 252 253 254 256 255
282 240 259 63 34 64 74 292 10 330 282 270 321 65 67 26 54 91 93 76 68 68 79 71 15 331 262 25 358 221 209 208 204 179 229 238 242 250 254 252 256 259 261 265
237 266 115 14 345 104 170 70 281 261 256 272 337 64 71 91 80 85 79 96 94 76 83 89 72 82 82 39 17 23 83 162 12 234 233 247 248 254 260 261 256 260 263 264
272 236 229 358 146 253 22 314 300 293 284 295 179 110 100 94 89 92 101 120 96 88 87 93 78 82 70 31 342 18 28 38 229 244 257 262 260 263 259 256 257 259 266 267
265 341 332 296 303 314 314 301 319 321 353 94 107 93 95 103 98 105 105 104 97 91 97 94 94 101 120 129 107 62 79 107 96 20 319 296 287 282 276 272 266 269 269 271
303 113 310 336 357 143 75 14 354 23 69 80 102 94 95 91 88 103 105 104 99 103 99 93 88 89 91 93 92 86 82 76 70 66 50 25 5 348 335 314 297 285 284 282
262 276 306 10 18 118 334 48 79 96 87 93 95 67 69 75 80 87 100 113 120 110 103 94 92 91 96 95 94 84 74 66 55 48 38 32 20 357 331 321 312 315 305 291
303 156 212 113 60 46 58 103 109 110 108 101 90 69 12 77 82 97 102 105 97 103 102 101 89 81 74 68 58 53 43 34 28 26 26 22 19 19 25 7 333 320 319 317
328 247 194 334 152 63 78 93 116 107 116 108 103 100 141 106 91 95 99 99 107 107 96 84 63 27 19 24 17 9 6 2 1 4 6 11 7 8 11 14 16 6 344 325
155 117 100 88 79 45 90 102 132 186 154 118 106 126 125 110 95 85 76 80 86 77 45 22 12 360 347 341 340 341 340 332 329 329 332 343 351 356 1 3 10 13 17 10
162 145 144 134 113 75 119 136 141 142 133 117 117 110 125 111 102 85 66 39 27 17 7 353 343 331 323 317 318 322 319 317 316 314 311 314 323 339 345 351 359 1 16 22
170 164 180 207 221 200 139 179 178 175 165 130 118 110 90 41 23 9 11 356 351 343 335 327 324 319 321 317 317 320 319 313 310 304 307 307 308 315 321 330 339 355 4 10
171 196 215 236 247 245 230 234 219 210 196 198 241 289 303 310 323 333 320 327 334 331 326 324 327 326 327 325 329 325 322 324 327 316 313 297 297 301 305 315 322 338 357 351
206 210 236 263 269 286 265 243 214 193 224 223 246 264 273 273 305 309 312 322 320 322 328 336 335 335 330 332 334 335 339 337 329 318 307 301 291 305 292 296 339 6 3 353
219 223 253 287 312 279 222 187 159 187 230 233 240 257 252 279 307 313 326 327 334 344 344 352 355 1 1 357 356 359 359 343 333 321 314 314 307 297 287 228 215 34 20 65
269 210 204 262 225 98 85 132 181 205 223 222 251 276 264 293 310 320 331 324 329 334 344 357 10 11 7 360 7 5 346 346 340 332 326 309 311 310 285 233 197 160 67 119
21 5 164 119 93 84 79 219 233 236 246 279 297 278 275 290 295 318 331 337 321 331 353 2 13 16 22 28 25 22 3 12 14 18 344 330 325 310 293 242 195 173 150 147
40 59 66 75 53 353 319 309 304 306 302 294 283 270 301 308 300 307 325 325 309 2 30 23 39 42 40 47 55 52 43 47 46 43 32 31 33 45 115 180 158 148 161 165
345 19 19 357 354 336 321 313 308 302 294 279 272 290 301 294 280 270 285 343 123 115 88 78 66 53 54 55 55 56 51 50 51 47 51 61 66 87 115 125 131 156 168 154
311 299 308 318 310 332 340 317 304 298 294 275 267 282 300 296 278 268 252 276 204 151 132 72 45 37 25 38 41 45 49 52 50 45 43 50 67 67 83 105 128 144 160 168
282 264 270 281 284 289 303 317 317 306 295 282 268 273 285 296 287 256 274 259 252 230 223 232 279 313 325 329 338 351 8 28 45 51 51 54 62 69 91 103 104 109 124 133
252 257 260 267 274 286 298 290 285 284 293 292 276 266 265 270 266 259 263 246 233 219 222 252 281 295 304 311 314 318 321 328 348 11 36 44 49 47 59 117 151 141 182 191
244 256 269 274 281 293 296 304 288 274 278 283 283 270 266 261 257 249 247 239 242 246 256 272 278 278 285 285 294 302 301 299 295 295 303 289 283 291 296 277 246 244 247 244